Temp
78 86 87 80 65 67 62 66 73 70 71 79 79 77 76 78 75 65 80 86 88 86 82 76 74 75 76 75 75 75 75 76 76 76 76 75 76 76 76 76 75 76 76 76 76 76 74 74 74
81 82 83 76 62 59 63 72 68 74 77 79 78 79 78 76 84 83 82 84 88 87 79 77 73 75 75 75 74 74 75 76 76 76 76 76 76 76 76 76 75 75 76 76 76 75 74 74 74
80 80 71 64 61 57 60 71 73 75 77 76 76 80 78 77 83 83 84 84 86 83 79 77 72 74 74 74 74 74 75 75 76 75 75 76 76 76 76 75 75 75 76 76 76 75 74 74 73
75 75 68 59 58 66 67 72 74 74 77 77 77 72 82 79 77 80 84 84 85 79 79 71 72 74 74 74 74 74 75 75 75 76 76 76 75 75 75 75 75 75 76 76 75 74 74 73 73
66 61 52 55 59 65 71 72 74 70 72 74 76 72 75 77 82 81 81 83 84 79 77 73 72 73 73 73 74 74 74 75 75 75 75 75 75 75 74 74 74 75 75 76 75 73 73 73 72
68 66 55 50 56 62 64 68 69 70 73 72 71 71 73 78 78 79 81 82 85 78 76 74 69 70 72 72 73 73 74 74 74 74 74 74 74 74 74 74 75 74 74 74 74 72 73 72 71
62 64 54 58 60 63 68 67 66 65 67 69 70 65 74 71 74 78 79 82 83 79 75 74 75 73 67 69 70 71 72 73 73 73 73 73 72 72 72 73 73 74 73 73 73 71 72 71 70
68 66 58 61 58 59 64 64 66 65 63 74 74 66 64 70 74 75 76 79 81 78 75 75 74 74 75 75 66 67 70 70 71 70 70 68 68 69 70 69 71 73 73 72 71 70 70 70 69
71 59 57 61 62 63 64 60 68 70 66 71 72 72 75 75 75 74 73 71 74 74 72 73 73 74 75 77 73 65 66 67 68 68 65 65 71 72 72 71 69 71 70 70 70 70 69 67 65
64 60 61 61 62 59 61 61 62 62 64 67 71 77 75 73 72 71 70 72 70 70 70 71 72 73 74 76 77 75 75 75 73 73 71 71 70 72 76 69 65 67 67 69 69 68 65 64 71
62 58 59 62 60 60 58 60 65 60 58 66 66 68 69 69 70 71 72 71 72 74 71 71 70 72 72 73 74 75 76 75 73 75 73 72 71 73 75 72 67 69 65 71 67 66 69 70 71
55 59 59 59 59 57 57 60 58 61 62 68 68 68 68 68 68 69 69 71 71 72 74 71 71 71 73 72 73 73 74 75 75 76 74 72 70 74 73 69 70 70 72 68 67 69 67 67 68
56 57 58 59 57 58 58 56 58 59 66 69 68 66 66 68 68 69 70 70 72 72 74 73 73 69 71 71 73 72 74 73 76 76 75 73 71 71 72 69 70 69 70 70 69 67 66 66 67
55 55 57 57 57 57 52 56 58 64 67 64 65 65 67 67 67 67 68 68 69 71 72 75 72 71 69 69 71 72 73 74 74 74 74 72 72 71 72 69 70 67 68 69 69 67 66 64 62
54 51 59 56 56 55 55 55 53 65 66 62 63 65 66 66 66 65 66 66 67 68 69 71 73 71 69 67 69 71 73 73 73 74 74 73 72 72 72 68 67 66 67 68 68 68 66 62 60
53 53 50 59 55 55 53 46 61 65 63 61 63 64 64 63 64 65 66 66 67 67 67 69 72 73 70 68 67 67 70 71 73 74 76 73 73 73 71 68 64 67 66 66 65 65 62 58 55
53 45 47 49 57 52 50 45 57 64 62 60 61 62 61 61 63 65 65 66 66 67 66 66 68 69 71 69 67 67 67 67 68 70 72 74 73 72 71 68 63 65 64 64 63 62 61 56 53
41 42 45 44 52 52 47 47 57 62 61 60 60 60 59 60 62 65 65 66 66 66 67 66 67 68 68 68 67 66 66 65 65 65 67 70 71 71 69 67 61 63 60 60 59 59 58 55 51
43 41 41 48 53 45 46 46 53 60 60 58 59 58 59 59 63 65 65 66 65 65 64 64 64 65 66 59 61 63 63 64 64 65 65 66 69 69 67 65 60 61 58 57 56 54 52 50 48
44 43 43 47 51 46 45 45 53 59 57 58 58 58 58 58 60 62 63 63 63 62 63 63 63 63 64 64 56 59 63 65 64 64 64 64 65 67 66 64 59 61 59 57 55 53 50 48 49
43 42 41 38 43 48 44 46 53 59 56 57 57 58 57 57 58 59 59 60 61 60 60 61 60 61 62 62 60 54 56 63 63 63 63 63 63 63 65 65 60 60 59 56 54 53 52 44 47
36 44 42 39 37 33 45 30 47 53 53 57 56 57 57 58 58 57 56 57 58 60 59 59 59 59 60 61 59 55 50 52 62 63 64 63 63 63 64 63 61 59 58 55 53 54 53 47 44
39 44 40 40 36 36 40 32 44 54 50 53 56 57 57 56 55 53 55 54 56 57 56 56 56 56 57 58 58 57 52 54 58 63 62 62 61 62 62 61 60 58 56 55 53 51 50 49 47
44 43 43 40 37 27 37 35 39 46 47 51 54 54 54 52 53 53 53 52 52 53 53 54 53 53 55 56 57 56 56 53 56 59 59 60 60 60 60 59 59 58 56 54 52 51 50 48 48
43 36 30 28 28 29 38 34 39 49 52 49 49 50 51 50 50 48 47 47 47 46 47 50 50 49 52 53 54 55 56 55 56 59 59 58 58 58 58 59 57 57 56 54 53 50 49 48 46
36 33 27 20 25 28 37 27 41 52 51 52 50 48 47 47 46 44 43 43 43 43 44 45 46 47 49 51 52 54 55 56 56 57 60 59 57 58 59 58 57 56 55 53 52 50 49 48 46
34 32 37 26 29 23 33 41 49 50 51 49 45 45 43 43 42 41 40 41 40 40 41 41 42 44 46 49 51 52 54 55 55 55 56 56 56 54 54 55 54 54 53 52 51 50 46 45 42
36 39 28 28 20 19 31 34 38 43 44 44 42 41 40 41 39 37 37 37 37 39 40 40 42 42 43 46 49 52 53 55 51 56 53 49 50 49 45 43 44 44 44 45 44 40 38 37 37
33 31 30 31 29 23 21 31 47 44 46 39 40 39 37 35 35 35 35 35 35 37 37 37 39 40 42 45 47 50 51 51 50 47 44 43 42 41 39 39 37 37 36 37 36 35 35 34 33
38 33 33 25 26 29 26 26 49 51 48 43 38 35 35 35 34 33 31 32 32 33 34 35 36 39 42 44 45 47 45 42 39 36 36 37 35 35 35 35 34 34 34 35 35 34 34 34 33
MSLP
1010.83 1010.05 1009.23 1008.76 1007.87 1005.99 1004.36 1003.93 1004.33 1003.84 1003.84 1003.72 1004.09 1004.10 1003.86 1003.80 1003.58 1004.55 1005.65 1005.54 1005.45 1006.11 1007.06 1008.52 1008.87 1009.32 1009.73 1010.05 1010.39 1010.59 1011.19 1011.60 1011.83 1012.15 1012.52 1012.82 1013.09 1013.41 1013.70 1013.99 1014.23 1014.33 1014.63 1014.99 1015.27 1015.45 1015.73 1015.94 1016.17
1010.93 1010.13 1009.00 1007.89 1006.82 1004.88 1003.76 1003.73 1004.25 1004.11 1004.03 1004.50 1004.33 1004.11 1003.83 1003.46 1003.88 1004.56 1005.29 1005.92 1006.03 1006.33 1007.44 1008.42 1009.06 1009.42 1009.85 1010.36 1010.65 1010.91 1011.18 1011.64 1011.98 1012.21 1012.54 1012.85 1013.14 1013.39 1013.68 1014.06 1014.35 1014.63 1014.89 1015.26 1015.50 1015.81 1016.03 1016.20 1016.42
1010.87 1010.40 1009.36 1008.07 1006.67 1005.26 1004.06 1004.09 1004.25 1004.63 1005.04 1004.69 1004.27 1004.53 1004.34 1004.12 1004.72 1005.34 1005.94 1006.41 1006.48 1007.12 1007.80 1008.59 1009.38 1009.56 1010.16 1010.59 1010.91 1011.10 1011.35 1011.62 1012.02 1012.16 1012.52 1012.94 1013.27 1013.50 1013.63 1014.06 1014.41 1014.84 1015.15 1015.40 1015.59 1015.97 1016.23 1016.42 1016.63
1011.13 1010.51 1010.25 1008.76 1006.71 1005.67 1005.13 1004.80 1004.98 1005.31 1005.04 1005.21 1005.30 1004.89 1004.71 1006.33 1006.43 1006.72 1006.50 1006.69 1006.59 1007.47 1008.01 1009.01 1009.50 1009.76 1010.37 1010.78 1011.08 1011.31 1011.44 1011.55 1011.90 1012.25 1012.45 1012.84 1013.26 1013.54 1013.78 1014.04 1014.36 1014.78 1015.23 1015.54 1015.88 1016.13 1016.30 1016.44 1016.76
1012.00 1011.90 1010.75 1008.99 1007.42 1006.69 1006.18 1006.32 1006.17 1006.22 1006.01 1005.62 1005.85 1005.33 1005.48 1006.66 1006.92 1007.09 1006.96 1007.10 1006.83 1007.57 1008.35 1009.27 1009.52 1010.01 1010.23 1010.85 1011.09 1011.44 1011.73 1011.74 1011.88 1012.23 1012.47 1012.70 1013.14 1013.44 1013.82 1014.03 1014.26 1014.68 1014.99 1015.42 1015.93 1016.29 1016.42 1016.54 1016.90
1010.87 1010.89 1009.98 1008.88 1008.10 1007.78 1007.31 1007.44 1007.41 1006.81 1006.60 1006.57 1006.49 1006.33 1006.47 1007.44 1007.55 1007.47 1007.50 1007.10 1007.14 1008.00 1008.54 1009.14 1009.68 1010.04 1010.48 1010.65 1010.93 1011.48 1011.78 1012.03 1012.07 1012.31 1012.70 1012.97 1013.17 1013.54 1013.88 1014.11 1014.27 1014.73 1015.11 1015.38 1015.77 1016.31 1016.49 1016.74 1017.05
1010.92 1009.72 1009.28 1008.56 1007.66 1007.36 1007.29 1008.39 1008.04 1007.82 1007.61 1007.26 1007.65 1006.84 1006.76 1007.78 1008.45 1008.12 1007.83 1007.53 1007.37 1008.20 1008.80 1009.09 1009.49 1010.04 1010.50 1010.80 1011.02 1011.21 1011.61 1012.09 1012.25 1012.46 1012.80 1012.98 1013.41 1013.69 1014.04 1014.32 1014.49 1014.81 1015.18 1015.51 1015.87 1016.22 1016.44 1016.84 1017.26
1010.37 1009.87 1009.04 1008.26 1008.04 1007.95 1008.81 1008.82 1008.88 1008.96 1008.47 1008.18 1007.99 1007.20 1007.49 1008.48 1008.82 1008.73 1008.36 1008.12 1007.76 1008.20 1008.84 1009.13 1009.34 1009.76 1010.33 1010.71 1011.10 1011.22 1011.38 1011.86 1012.25 1012.53 1012.89 1013.28 1013.63 1013.91 1014.09 1014.38 1014.74 1014.97 1015.11 1015.62 1016.02 1016.41 1016.68 1016.84 1017.25
1010.88 1009.79 1008.54 1008.21 1008.14 1008.28 1009.38 1009.57 1009.28 1009.45 1009.00 1008.19 1008.26 1007.83 1007.71 1008.47 1008.90 1008.85 1008.55 1008.79 1008.56 1008.64 1008.96 1009.08 1009.30 1009.52 1009.87 1010.13 1010.87 1011.51 1011.35 1011.50 1012.18 1012.49 1012.79 1013.28 1013.61 1013.92 1014.24 1014.30 1014.67 1014.98 1015.28 1015.72 1016.20 1016.59 1016.87 1017.28 1017.63
1010.62 1009.58 1009.00 1009.81 1009.97 1010.31 1010.48 1010.50 1010.10 1009.65 1008.91 1008.26 1007.79 1007.34 1008.01 1008.78 1008.83 1008.79 1008.68 1008.64 1008.71 1008.80 1008.97 1009.09 1009.20 1009.32 1009.51 1009.80 1010.16 1010.99 1011.21 1011.43 1011.55 1012.07 1012.66 1012.86 1013.56 1013.57 1013.62 1014.32 1014.78 1015.12 1015.47 1015.86 1016.33 1016.86 1017.38 1017.57 1017.47
1010.91 1010.22 1010.71 1010.63 1011.52 1011.97 1011.52 1010.95 1010.42 1010.18 1009.00 1008.50 1008.17 1008.30 1008.90 1009.19 1008.87 1008.87 1008.71 1008.76 1008.61 1008.39 1008.63 1008.74 1008.91 1009.09 1009.38 1009.49 1009.67 1010.30 1010.48 1010.93 1011.29 1011.36 1012.00 1012.44 1013.08 1013.26 1013.55 1014.13 1014.87 1015.29 1015.65 1016.04 1016.84 1017.13 1017.31 1017.12 1017.27
1012.00 1011.73 1011.78 1011.81 1012.28 1012.49 1011.95 1011.72 1010.86 1010.13 1009.16 1008.98 1008.85 1009.03 1009.03 1008.70 1008.77 1008.84 1008.80 1008.63 1008.51 1008.30 1008.08 1008.42 1008.50 1008.55 1008.65 1008.94 1009.26 1009.59 1010.09 1010.29 1010.71 1010.86 1011.30 1011.81 1012.46 1012.65 1013.18 1013.93 1014.50 1014.88 1015.23 1015.95 1016.85 1017.09 1017.05 1017.21 1017.57
1012.48 1012.42 1012.67 1012.79 1013.07 1012.84 1012.61 1011.77 1010.90 1009.59 1009.20 1008.96 1009.08 1009.21 1009.00 1008.80 1008.66 1008.84 1008.81 1008.65 1008.36 1008.07 1007.78 1007.72 1007.89 1008.07 1007.99 1008.28 1008.53 1008.82 1009.19 1009.69 1009.92 1010.33 1010.79 1011.31 1011.72 1012.23 1012.90 1013.32 1013.91 1014.58 1014.91 1015.62 1016.14 1016.82 1017.46 1017.71 1017.88
1013.45 1013.19 1012.85 1012.97 1013.07 1012.93 1012.78 1011.36 1010.78 1008.76 1008.76 1009.21 1009.28 1008.99 1008.68 1008.50 1008.52 1008.62 1008.47 1008.23 1008.17 1007.88 1007.66 1007.31 1007.29 1007.35 1007.51 1007.51 1007.63 1007.81 1008.14 1008.38 1009.09 1009.36 1010.04 1010.74 1011.16 1011.53 1012.50 1013.04 1013.43 1014.29 1014.71 1015.02 1015.77 1016.69 1017.33 1018.00 1018.80
1013.80 1013.15 1012.19 1012.80 1012.87 1012.65 1012.82 1010.29 1009.58 1008.63 1008.64 1008.97 1008.75 1008.45 1008.38 1008.45 1008.61 1008.64 1008.55 1008.45 1008.39 1008.17 1007.97 1007.51 1007.10 1006.96 1006.98 1006.95 1006.97 1006.94 1007.00 1007.41 1007.81 1008.30 1008.89 1009.73 1010.43 1010.86 1011.57 1012.43 1013.29 1013.87 1014.35 1014.80 1015.55 1016.36 1017.29 1018.29 1019.40
1013.27 1012.99 1011.99 1011.68 1012.58 1012.59 1012.82 1010.15 1008.53 1008.57 1008.44 1008.02 1007.92 1007.83 1007.98 1008.33 1008.48 1008.49 1008.60 1008.60 1008.55 1008.30 1007.98 1007.63 1007.13 1006.53 1006.34 1006.35 1006.27 1005.98 1006.29 1006.55 1006.94 1007.11 1007.65 1008.52 1009.49 1010.21 1010.90 1011.79 1012.91 1013.35 1014.08 1014.46 1015.55 1016.33 1017.37 1018.68 1019.72
1013.13 1012.87 1012.53 1012.38 1012.32 1012.92 1012.59 1010.61 1008.99 1008.39 1007.70 1007.44 1007.47 1007.55 1007.86 1008.16 1008.28 1008.36 1008.56 1008.57 1008.50 1008.27 1007.97 1007.53 1007.11 1006.60 1005.87 1005.80 1005.92 1005.51 1005.20 1005.80 1006.34 1006.59 1006.86 1007.33 1008.43 1009.31 1010.04 1010.98 1012.13 1012.98 1013.65 1014.32 1015.24 1016.36 1017.15 1018.46 1019.73
1014.57 1014.02 1013.44 1013.03 1012.54 1012.51 1011.93 1010.19 1008.43 1007.64 1007.11 1007.06 1007.15 1007.47 1007.90 1007.92 1007.99 1008.23 1008.35 1008.33 1008.32 1008.16 1007.79 1007.43 1006.94 1006.34 1005.86 1005.33 1005.18 1005.02 1004.97 1004.23 1005.37 1006.12 1005.59 1006.67 1007.37 1008.30 1009.20 1010.35 1011.65 1012.48 1013.51 1014.28 1015.10 1016.11 1017.25 1018.41 1019.42
1016.42 1015.53 1014.23 1013.21 1013.00 1012.89 1011.46 1009.96 1008.16 1007.14 1006.86 1006.81 1006.98 1007.29 1007.49 1007.79 1008.11 1008.05 1008.10 1008.09 1008.07 1007.81 1007.63 1007.30 1006.83 1006.41 1005.88 1005.76 1005.19 1004.60 1003.84 1004.01 1004.53 1004.58 1005.66 1005.97 1006.61 1007.64 1008.51 1009.43 1010.98 1011.77 1012.94 1013.72 1014.77 1015.89 1017.02 1018.70 1019.88
1016.50 1015.49 1014.38 1013.52 1013.22 1013.36 1011.36 1009.09 1007.61 1006.68 1006.64 1006.85 1006.97 1007.15 1007.49 1007.82 1007.93 1007.96 1008.01 1008.07 1007.89 1007.62 1007.34 1007.08 1006.68 1006.26 1005.85 1005.38 1005.48 1004.80 1003.77 1002.97 1003.47 1003.57 1004.28 1005.61 1005.21 1006.75 1007.61 1008.73 1009.82 1011.02 1012.30 1013.26 1014.26 1015.34 1016.94 1018.13 1018.89
1016.65 1015.86 1015.33 1015.04 1013.73 1012.68 1011.81 1008.30 1006.25 1006.02 1006.80 1007.09 1007.42 1007.62 1007.92 1007.95 1007.91 1008.00 1008.05 1007.99 1007.63 1007.32 1007.21 1006.86 1006.61 1006.15 1005.71 1005.33 1004.79 1004.68 1003.91 1002.89 1001.91 1003.05 1002.95 1003.86 1004.81 1005.46 1006.82 1007.85 1008.66 1010.09 1011.26 1012.26 1013.31 1014.48 1014.97 1016.89 1018.43
1016.89 1016.44 1016.07 1015.42 1014.66 1013.05 1012.47 1009.78 1007.13 1006.36 1006.59 1006.52 1007.01 1007.49 1007.75 1007.92 1008.18 1008.26 1008.22 1007.87 1007.48 1006.83 1006.75 1006.56 1006.23 1005.90 1005.32 1004.98 1004.56 1004.23 1004.17 1003.41 1001.39 1001.68 1001.66 1002.72 1003.99 1004.74 1006.03 1006.92 1007.80 1008.93 1010.47 1011.68 1012.53 1013.73 1014.20 1015.40 1016.73
1017.47 1016.78 1016.26 1015.64 1014.98 1014.11 1012.11 1011.52 1007.49 1006.40 1006.22 1006.55 1007.06 1007.38 1007.96 1008.28 1008.50 1008.37 1007.91 1007.59 1007.06 1006.67 1006.33 1006.27 1006.00 1005.46 1004.99 1004.51 1004.17 1003.74 1003.38 1002.84 1002.09 1001.33 1001.04 1001.61 1002.93 1003.74 1004.37 1005.79 1006.89 1008.16 1009.33 1010.61 1011.34 1012.83 1013.53 1014.79 1015.27
1018.22 1016.67 1015.61 1015.62 1015.19 1014.09 1012.28 1011.72 1008.16 1007.05 1007.40 1007.35 1007.63 1008.16 1008.43 1008.70 1008.46 1008.24 1008.03 1007.76 1007.33 1007.05 1006.45 1005.96 1005.51 1004.96 1004.64 1004.10 1003.51 1003.16 1002.71 1002.38 1001.88 1000.84 999.20 1000.22 1001.98 1003.02 1003.69 1004.95 1006.15 1007.11 1008.24 1009.52 1010.49 1011.98 1012.30 1013.33 1014.34
1018.20 1017.21 1016.01 1015.76 1015.05 1013.53 1012.77 1011.69 1008.69 1007.80 1007.80 1008.36 1008.58 1008.83 1009.10 1008.98 1008.64 1008.41 1008.23 1007.82 1007.36 1007.11 1006.61 1005.85 1005.17 1004.42 1004.17 1003.55 1002.95 1002.70 1002.25 1001.81 1001.03 1000.53 1000.24 1000.44 1001.29 1002.48 1003.39 1004.00 1005.02 1006.17 1007.05 1008.11 1009.55 1010.32 1011.50 1013.11 1013.29
1019.33 1019.31 1018.71 1017.91 1015.98 1014.13 1012.82 1010.90 1008.33 1008.04 1008.57 1008.88 1009.46 1009.88 1009.76 1009.31 1009.17 1008.89 1008.57 1008.09 1007.55 1006.96 1006.34 1005.75 1004.92 1004.02 1003.62 1003.02 1002.42 1002.20 1001.89 1001.48 1000.72 1000.31 999.80 999.90 1001.04 1001.92 1002.61 1003.54 1004.38 1005.31 1006.41 1007.67 1008.59 1009.24 1010.30 1011.81 1012.57
1019.91 1019.83 1020.04 1019.39 1017.46 1015.91 1012.23 1009.93 1008.06 1008.28 1008.25 1008.87 1009.67 1009.98 1009.95 1009.78 1009.68 1009.20 1008.74 1008.18 1007.53 1006.74 1005.96 1005.24 1004.53 1003.78 1003.23 1002.42 1001.85 1001.67 1001.30 1000.93 1000.54 999.78 1000.08 999.95 1000.69 1001.63 1002.35 1002.82 1004.14 1004.40 1004.98 1006.64 1007.82 1008.63 1009.93 1011.17 1012.74
1020.58 1020.84 1020.42 1020.10 1018.30 1015.62 1012.11 1010.24 1008.06 1008.08 1008.43 1009.23 1009.49 1010.14 1010.23 1010.18 1009.95 1009.55 1009.01 1008.30 1007.52 1006.50 1005.49 1004.69 1003.81 1003.12 1002.63 1002.14 1001.47 1001.14 1000.80 1000.43 1000.27 999.79 999.98 1001.15 1001.58 1002.08 1002.36 1003.64 1004.49 1004.61 1005.76 1006.75 1008.13 1009.55 1010.51 1011.88 1013.36
1020.51 1020.71 1020.91 1020.64 1019.53 1017.52 1014.14 1010.29 1008.90 1008.97 1008.95 1009.60 1010.11 1010.81 1010.75 1010.59 1010.25 1009.81 1009.25 1008.52 1007.41 1006.22 1005.09 1004.19 1003.17 1002.32 1001.77 1001.38 1001.06 1000.71 1000.53 1000.28 999.78 999.92 1000.77 1001.60 1001.95 1002.84 1003.46 1004.14 1004.78 1005.69 1007.06 1007.95 1008.97 1010.11 1011.21 1012.53 1013.94
1020.12 1020.33 1020.57 1020.63 1019.64 1018.54 1016.90 1011.94 1009.62 1009.14 1009.66 1010.66 1011.21 1011.42 1011.51 1011.38 1010.85 1010.37 1009.59 1008.54 1007.35 1006.12 1004.81 1003.54 1002.45 1001.66 1001.09 1000.82 1000.75 1000.56 1000.52 1000.43 1000.20 1000.81 1001.55 1002.15 1003.25 1003.92 1004.49 1005.17 1006.13 1006.83 1008.01 1009.09 1009.95 1011.02 1012.16 1013.35 1014.30
Wind_Speed
16 13 5 5 7 7 11 8 8 5 4 4 2 6 11 13 11 4 1 5 7 15 18 20 20 20 19 18 17 17 17 17 17 18 17 18 17 15 14 14 13 13 14 12 12 11 12 13 12
12 11 4 7 7 11 8 7 8 10 4 7 10 10 10 10 7 3 1 6 7 14 16 18 17 19 18 17 17 17 17 17 17 17 19 19 17 16 15 14 13 13 12 12 12 12 12 12 11
8 5 5 5 10 12 9 4 5 2 2 6 4 4 7 6 9 6 7 7 9 14 14 14 16 18 17 16 15 16 16 16 16 17 18 17 16 15 14 15 15 13 12 13 14 13 12 11 12
6 0 4 7 13 11 7 7 1 9 6 1 5 9 2 13 9 12 7 6 11 15 12 15 15 18 17 16 15 15 16 15 16 17 17 17 16 14 12 15 15 14 13 13 13 12 10 12 13
3 2 4 7 12 10 8 8 10 11 12 8 10 9 5 9 10 8 3 4 10 13 10 15 15 17 18 17 17 16 15 15 16 15 16 17 16 14 15 16 17 13 13 13 14 8 7 13 14
5 3 7 9 12 6 1 9 12 12 10 6 7 6 3 14 16 11 7 4 9 10 9 13 13 15 16 18 17 16 14 15 14 14 14 14 16 14 15 16 16 16 16 14 15 8 11 13 13
9 9 12 16 12 15 8 7 7 9 12 5 11 6 0 16 16 13 7 4 8 10 7 10 14 15 11 14 13 14 15 14 14 14 14 14 13 13 14 14 15 16 17 16 14 10 12 13 11
6 9 16 14 13 16 7 8 6 6 7 10 4 3 4 13 13 12 9 6 7 9 7 9 12 13 16 15 11 11 13 12 13 13 11 9 10 11 13 10 10 15 16 16 14 12 12 13 11
4 8 11 14 13 8 5 9 4 6 15 11 7 9 5 12 12 14 7 6 7 4 6 7 11 12 13 14 14 10 10 13 12 11 10 10 8 11 13 12 11 14 16 16 14 11 12 11 9
10 9 8 7 6 8 12 11 13 13 15 18 16 15 9 17 15 13 11 11 6 10 8 8 8 11 12 10 15 15 12 11 11 10 10 8 7 10 12 11 9 13 14 16 14 15 13 11 8
1 7 8 2 6 8 12 15 13 15 17 16 17 17 15 15 15 14 13 12 12 11 8 10 9 11 13 11 8 8 8 9 9 14 13 10 9 7 7 5 6 9 11 8 9 9 9 6 6
5 3 6 6 6 8 10 12 12 15 20 17 15 14 14 15 14 15 15 15 13 12 12 12 12 13 14 10 10 10 9 10 9 12 15 10 7 8 8 6 9 9 8 11 8 7 3 5 5
4 3 5 4 5 9 10 14 14 22 19 16 9 11 15 17 17 16 15 16 16 15 13 14 16 14 14 15 11 12 13 10 13 12 15 11 11 9 9 8 9 8 9 10 8 6 5 5 6
4 8 8 4 6 8 9 16 14 8 4 7 11 17 16 16 15 15 16 14 15 15 15 13 15 16 15 14 16 13 12 14 12 12 13 14 11 10 10 9 9 7 9 9 8 9 8 7 8
5 7 7 5 4 10 11 14 12 11 5 10 16 16 14 13 12 12 12 14 14 15 16 17 16 15 18 17 16 14 14 13 14 13 18 18 14 13 13 10 9 9 9 10 9 10 9 9 8
5 5 7 3 5 1 7 11 13 14 14 18 16 13 10 9 7 6 7 9 11 13 15 17 14 17 16 18 14 13 13 14 14 14 14 20 19 17 14 11 9 9 8 9 9 9 9 9 8
3 9 12 11 3 5 7 16 20 22 16 15 12 11 7 6 6 3 7 9 11 12 14 15 16 17 17 17 15 14 15 13 12 13 12 18 19 19 14 12 10 12 9 10 11 10 10 10 9
12 10 10 14 9 14 19 24 21 20 13 12 9 5 6 6 7 8 9 10 12 13 13 14 14 16 17 12 14 12 12 10 13 12 13 18 16 19 15 12 12 12 10 10 10 12 9 9 11
8 13 18 16 15 11 14 26 22 18 9 8 5 6 7 6 7 8 9 12 13 14 14 15 15 16 13 7 10 13 13 11 14 16 19 20 17 20 18 13 14 14 13 13 13 13 16 11 11
11 17 15 10 18 17 19 29 23 10 7 5 8 8 9 9 10 12 12 14 16 16 17 16 15 16 13 9 6 8 9 13 9 12 16 13 18 19 18 17 15 16 13 16 16 16 11 6 11
14 11 14 18 25 15 12 17 2 5 4 6 10 10 10 12 13 16 17 20 20 19 19 17 17 17 15 16 9 7 11 12 10 13 14 17 19 18 20 20 16 17 15 14 16 16 16 11 10
11 5 14 18 15 6 10 9 14 3 6 10 7 10 11 13 17 18 23 24 23 20 17 17 17 19 16 17 13 12 9 12 10 12 15 15 20 20 20 19 17 18 13 14 16 14 13 12 15
9 17 18 15 11 11 2 5 7 13 8 14 16 10 13 16 20 24 25 24 24 18 16 17 20 20 20 18 16 12 10 10 11 13 15 17 16 19 19 18 17 17 14 16 18 17 15 11 14
14 16 10 4 5 5 1 3 10 6 14 18 18 16 18 24 25 26 24 23 22 22 21 19 20 20 20 19 17 17 16 12 12 11 8 12 13 14 19 18 16 17 16 19 18 16 17 15 12
13 12 4 3 3 4 2 10 11 14 14 11 15 22 25 25 24 21 23 23 21 21 21 19 20 20 19 19 17 16 15 14 14 12 11 11 8 10 15 19 19 17 20 20 18 19 17 16 15
6 5 3 6 7 12 15 9 6 15 7 9 22 23 24 22 20 23 23 22 20 20 19 20 20 20 18 18 17 14 14 10 9 8 11 10 10 10 13 15 18 19 18 16 18 14 14 14 12
2 1 3 5 9 7 7 11 17 1 13 20 23 24 22 19 22 23 20 20 20 19 20 18 19 19 19 18 14 14 13 13 10 8 7 10 11 9 11 15 12 15 18 18 18 12 13 12 9
1 4 3 3 7 9 6 13 10 14 21 20 24 25 23 24 24 20 19 20 19 20 19 18 18 17 17 17 15 12 12 11 10 9 10 4 4 9 10 8 9 9 10 10 9 9 11 13 9
4 3 3 2 5 5 9 9 10 12 18 22 26 24 21 22 22 20 20 20 20 18 17 16 16 15 13 13 13 12 11 9 4 7 7 9 10 8 10 12 13 11 12 11 13 13 15 16 14
4 4 4 3 2 7 8 13 10 14 20 22 25 21 17 21 21 20 20 19 19 19 17 16 13 12 11 9 9 9 1 2 8 9 9 11 11 10 9 13 13 15 14 12 15 15 14 17 16
Wind_Direction
313 324 294 257 241 235 255 227 249 269 246 83 337 292 318 317 292 352 50 181 170 166 149 165 163 164 166 167 163 159 159 160 163 156 148 149 149 148 140 138 129 121 121 134 128 119 114 110 109
320 319 232 270 253 242 243 205 224 240 0 321 273 270 251 270 33 46 225 150 175 159 150 166 165 163 167 172 166 162 164 167 164 161 158 153 150 147 144 136 131 127 140 135 136 128 124 121 120
320 328 290 260 246 259 287 69 281 41 279 331 301 340 312 359 40 11 31 166 187 143 161 162 165 160 169 175 173 173 173 174 174 164 157 155 157 155 151 151 140 144 140 155 137 137 136 132 130
358 132 258 261 261 257 302 320 343 321 311 335 316 301 347 47 4 347 350 175 182 142 173 145 165 162 169 175 178 181 179 177 185 178 172 166 161 159 158 152 143 140 154 146 142 150 158 146 134
87 37 288 258 267 291 288 284 303 292 301 295 327 286 321 34 6 2 330 221 195 144 165 161 165 169 168 177 181 184 193 182 179 181 176 170 170 168 158 153 145 148 153 153 148 152 149 143 135
214 204 233 240 262 236 238 357 318 300 292 314 302 320 39 39 12 2 333 217 215 163 169 168 169 171 176 175 177 189 197 196 177 177 173 177 167 168 160 161 146 157 153 157 152 137 138 126 130
256 242 241 272 268 265 288 350 310 328 299 328 317 283 104 38 3 351 345 288 227 170 200 178 178 180 174 177 180 183 187 202 184 186 186 186 172 167 163 163 161 165 160 163 150 140 133 126 128
244 240 264 242 257 262 33 346 359 350 294 324 346 299 347 12 0 352 347 306 258 171 207 186 187 181 189 184 192 198 186 187 188 182 188 178 166 166 157 165 177 171 160 146 143 139 124 123 125
250 246 249 262 265 300 39 344 292 320 281 268 274 281 330 5 342 335 335 313 292 229 221 226 196 192 194 194 192 207 195 189 190 184 161 157 176 178 174 182 170 177 142 140 144 145 130 120 126
229 240 275 18 0 309 320 310 312 308 292 283 285 281 353 334 330 322 315 307 264 249 223 231 216 196 194 201 189 203 198 202 191 184 185 157 185 187 184 178 166 154 140 140 145 131 124 169 149
215 271 24 351 359 325 302 298 310 286 277 279 300 312 313 317 312 309 306 303 295 274 249 220 222 202 197 203 196 193 194 198 194 191 184 174 192 191 169 168 150 149 150 145 128 134 174 181 147
267 310 327 341 337 310 297 316 281 273 275 296 297 303 307 309 317 313 308 303 294 297 260 232 228 222 206 197 195 187 204 195 199 198 187 177 182 188 174 168 173 166 167 136 156 173 114 118 126
264 338 301 296 302 306 301 281 287 282 280 282 287 285 293 299 302 301 299 297 286 280 280 245 228 224 215 202 200 194 193 200 194 203 194 187 182 183 182 184 171 179 152 156 169 132 146 132 114
337 290 276 292 251 293 287 293 293 263 347 285 284 296 295 299 300 300 296 292 293 294 284 286 245 230 228 215 200 194 197 194 196 199 191 189 187 184 182 192 167 171 156 159 149 155 147 125 102
307 295 241 187 331 302 315 281 225 261 306 290 275 278 293 303 313 310 317 312 308 299 293 282 283 247 230 223 216 205 197 197 195 197 188 187 188 194 178 186 173 168 158 154 150 154 146 119 117
309 246 342 73 13 8 342 293 304 332 304 288 290 292 304 307 306 337 342 330 321 307 294 288 283 279 244 229 222 215 205 203 197 194 190 187 190 193 181 181 164 166 161 147 151 148 142 132 129
110 315 318 320 271 301 269 293 291 304 297 291 287 287 294 283 285 305 324 332 330 321 309 296 284 283 281 240 236 215 208 204 204 202 192 188 187 190 183 179 163 160 158 157 155 155 150 139 125
322 320 315 307 302 318 290 286 295 301 296 286 285 275 254 270 294 318 311 323 321 319 314 305 294 278 277 290 237 237 219 201 195 204 190 194 189 184 180 169 159 163 159 157 150 150 140 136 132
307 300 301 302 328 309 286 296 298 299 289 271 260 248 257 273 297 304 316 322 323 318 313 308 300 293 282 292 284 239 225 214 201 191 195 190 190 185 181 174 163 162 164 162 156 146 142 134 129
302 300 311 305 325 319 300 294 293 277 266 282 290 267 269 286 294 304 309 322 317 316 311 303 297 294 289 281 274 299 264 217 212 203 178 189 193 186 184 175 167 173 170 164 157 158 142 127 167
313 297 326 311 320 300 312 286 267 274 229 264 275 278 285 280 301 316 317 316 314 307 308 298 297 291 287 284 278 290 289 255 200 210 180 181 185 184 191 188 169 177 172 169 163 167 162 154 190
306 347 312 310 317 306 359 295 315 332 272 300 296 276 277 307 319 316 317 311 311 303 301 290 290 290 285 282 279 268 267 269 251 201 197 183 186 185 186 185 174 173 175 172 171 174 167 158 167
282 317 301 296 291 308 141 257 283 292 311 344 336 314 303 316 322 313 309 311 307 305 297 300 293 287 281 276 272 271 263 269 272 240 204 180 183 181 180 181 174 175 169 177 178 174 170 180 166
294 302 310 267 282 256 286 280 286 345 336 328 334 330 323 317 312 311 312 314 310 305 299 292 287 283 280 277 270 266 267 267 256 258 188 176 178 185 182 176 177 175 176 177 175 186 173 174 177
349 338 346 290 245 294 120 295 259 313 335 336 328 328 319 319 314 316 313 309 306 302 298 293 285 280 279 276 273 270 265 266 258 262 206 173 174 186 187 182 180 183 183 178 183 175 176 186 178
4 7 28 304 316 303 300 239 272 340 2 329 336 324 320 317 321 315 312 308 306 301 295 295 289 283 276 273 271 269 265 259 259 227 201 180 178 189 182 189 189 184 182 184 186 180 176 179 175
62 348 354 274 250 265 243 274 284 97 329 334 331 327 319 321 323 318 315 309 307 301 295 288 283 280 282 275 268 268 266 256 263 194 245 172 168 175 181 182 191 190 179 177 179 177 170 160 151
284 348 233 181 301 297 272 307 299 337 330 338 338 330 326 324 324 321 320 315 311 305 300 293 278 271 266 268 269 263 263 263 280 193 151 95 154 143 119 90 111 114 121 118 124 114 113 114 113
164 183 220 280 266 294 309 298 351 316 339 342 339 330 323 325 326 329 323 318 312 310 307 296 287 272 261 255 258 259 258 269 225 109 105 115 106 86 105 110 107 99 96 99 107 113 115 114 109
249 233 192 233 242 251 284 270 277 326 346 341 335 320 328 328 333 330 325 321 321 320 314 300 286 274 260 248 253 259 171 96 88 96 90 93 92 88 94 100 93 104 99 104 113 110 116 116 111